This is the latest recevied weather packets stored in our database for station/object VE6CPK-13. If no packets are shown the sender has not sent any weather packets the latest 1 day(s).
| Time | Temp. | Humidity | Pressure | Rain* | Wind** | Luminosity | Snow |
|---|---|---|---|---|---|---|---|
| 1778076022 | 2.78° C | 60% | 1009.8 hPa | 0 mm | - | - | - |
| 1778075423 | 2.22° C | 62% | 1009.8 hPa | 0 mm | - | - | - |
| 1778074822 | 1.67° C | 62% | 1009.8 hPa | 0 mm | - | - | - |
| 1778074523 | 1.67° C | 64% | 1009.9 hPa | 0 mm | - | - | - |
| 1778074223 | 1.11° C | 64% | 1010 hPa | 0 mm | - | - | - |
| 1778073323 | 0.56° C | 66% | 1010 hPa | 0 mm | - | - | - |
| 1778072722 | 0° C | 68% | 1010.1 hPa | 0 mm | - | - | - |
| 1778072123 | -0.56° C | 68% | 1010.1 hPa | 0 mm | - | - | - |
| 1778071522 | -0.56° C | 68% | 1010.1 hPa | 0 mm | - | - | - |
| 1778069123 | -0.56° C | 63% | 1010.3 hPa | 0 mm | - | - | - |
| 1778068522 | -0.56° C | 62% | 1010.3 hPa | 0 mm | - | - | - |
| 1778067923 | -0.56° C | 62% | 1010.5 hPa | 0 mm | - | - | - |
| 1778067623 | -0.56° C | 62% | 1010.6 hPa | 0 mm | - | - | - |
| 1778066723 | 0° C | 62% | 1010.7 hPa | 0 mm | - | - | - |
| 1778065822 | 0° C | 61% | 1010.9 hPa | 0 mm | - | - | - |
| 1778065522 | 0° C | 60% | 1010.9 hPa | 0 mm | - | - | - |
| 1778064923 | 0.56° C | 59% | 1011.1 hPa | 0 mm | - | - | - |
| 1778064623 | 0.56° C | 59% | 1011.2 hPa | 0 mm | - | - | - |
| 1778064022 | 0.56° C | 59% | 1011.3 hPa | 0 mm | - | - | - |
| 1778063723 | 0.56° C | 59% | 1011.3 hPa | 0 mm | - | - | - |
| 1778062822 | 0.56° C | 59% | 1011.4 hPa | 0 mm | - | - | - |
| 1778060722 | 1.11° C | 56% | 1012.1 hPa | 0 mm | - | - | - |
| 1778059822 | 1.11° C | 56% | 1012.3 hPa | 0 mm | - | - | - |
| 1778059521 | 1.11° C | 55% | 1012.4 hPa | 0 mm | - | - | - |
| 1778058922 | 1.11° C | 55% | 1012.5 hPa | 0 mm | - | - | - |
* Rain latest hour (hover to see other rain measurements)
** Current wind speed in m/s (hover to see current wind gust speed)